Probability
0 0 0 0 0 0 0 0 0 1 2 1 0 1 1 1 0 0 0 1 2 3 3 3 2 1 0 0 0 0 0 0 0 0 0 0 0 0 0 0 0 0 0
0 0 0 0 0 0 0 0 0 1 1 1 0 0 0 0 0 1 1 1 1 2 2 3 2 1 0 0 0 0 0 0 0 0 0 0 0 0 0 0 0 0 0
0 0 0 0 0 0 0 0 0 0 0 0 0 0 0 0 0 1 1 1 0 0 1 1 2 1 0 0 0 0 0 0 0 0 0 0 0 0 0 0 0 0 0
0 0 0 0 0 0 0 0 0 0 0 0 0 0 0 0 0 1 1 0 0 0 0 0 1 1 0 0 0 0 0 0 0 0 0 0 0 0 0 0 0 0 0
0 0 0 0 0 0 0 0 1 1 1 0 0 0 0 0 0 0 0 0 0 0 0 0 0 0 0 0 0 0 0 0 0 0 0 0 0 0 0 0 1 1 0
0 0 0 0 0 0 0 0 1 2 1 1 0 0 0 0 0 0 0 0 0 0 0 0 0 0 0 0 0 0 0 0 0 0 0 0 0 0 0 0 1 2 1
0 0 0 0 0 0 0 0 1 1 1 1 0 0 0 0 0 0 0 0 0 0 0 0 0 0 0 0 0 0 0 0 0 0 0 0 0 0 0 0 1 2 2
0 0 0 0 0 0 0 0 0 0 1 1 0 0 0 0 0 0 0 0 0 0 0 0 0 0 0 0 0 0 0 0 0 0 0 0 0 1 1 1 0 1 1
0 0 0 0 0 0 0 0 0 0 0 0 0 0 0 0 0 0 0 0 0 0 0 0 0 0 0 0 0 0 0 1 0 0 0 0 0 1 2 1 0 0 0
0 0 0 0 0 0 0 0 0 0 0 0 0 0 0 0 0 0 0 0 0 0 0 0 0 0 0 0 0 0 0 0 0 0 0 0 0 1 1 1 0 0 0
0 0 1 1 1 0 0 0 0 0 0 0 0 0 0 0 0 0 0 0 0 0 0 0 0 0 0 0 0 0 0 0 0 0 0 0 0 0 0 0 0 1 1
0 0 1 2 1 0 0 0 0 0 0 0 0 0 0 0 0 0 0 0 0 0 0 0 0 0 0 0 0 0 0 0 0 0 0 0 0 0 0 0 1 1 2
0 0 0 1 1 0 0 0 0 0 0 0 0 0 0 0 0 0 0 0 0 0 0 0 0 0 0 0 0 0 0 0 0 0 0 0 0 0 1 1 1 1 2
0 0 0 0 0 0 0 0 0 0 0 0 0 0 0 0 0 0 0 0 0 0 0 0 0 0 0 0 0 0 1 1 0 0 0 0 0 0 1 2 2 2 2
1 0 0 0 0 0 0 0 0 0 0 0 0 0 0 0 0 0 0 0 0 0 0 0 0 0 0 0 0 0 1 1 1 1 0 0 0 0 1 2 3 3 3
2 1 1 1 0 0 0 0 0 0 0 0 0 0 0 0 0 0 0 0 0 0 0 0 0 0 0 0 0 0 1 1 1 1 1 0 0 0 1 2 3 4 4
3 3 4 4 2 0 0 0 0 0 0 0 0 0 0 0 0 0 0 0 0 0 0 0 0 0 0 0 0 0 0 0 1 1 2 1 0 0 0 1 3 4 4
4 4 5 5 3 1 1 0 0 0 0 0 0 0 0 0 0 0 0 0 0 0 0 0 0 0 0 0 0 0 0 0 0 1 2 2 1 0 0 1 2 3 3
6 6 6 6 5 4 2 1 0 0 0 0 0 0 0 0 0 0 0 0 0 0 0 0 0 0 0 0 0 0 0 0 0 0 1 2 1 0 0 0 1 3 3
6 6 6 6 6 5 3 1 0 0 0 0 0 0 0 0 0 0 0 0 0 0 0 0 0 0 0 0 0 0 0 0 0 0 0 1 2 1 0 0 0 2 3
6 6 6 6 6 6 4 2 0 0 0 0 0 0 0 0 0 0 0 0 0 0 0 0 0 0 0 0 0 0 0 0 0 0 0 1 2 1 0 0 0 0 1
6 6 6 6 6 6 5 3 2 1 1 1 1 0 0 0 0 0 0 0 0 0 0 0 0 0 0 0 0 0 0 0 0 0 0 0 1 1 0 0 0 0 0
4 5 6 6 6 5 4 4 3 2 2 1 1 0 0 0 0 0 0 0 0 0 0 0 0 0 0 0 0 0 0 0 0 0 0 0 0 0 0 0 0 0 0
2 3 4 4 4 4 3 3 3 3 3 2 1 0 0 0 0 0 0 0 0 0 0 0 0 0 0 0 0 0 0 0 0 0 0 0 0 0 0 0 0 0 0
0 1 3 3 3 3 3 3 3 3 3 3 2 1 0 0 0 0 0 0 0 0 0 0 0 0 0 0 0 0 0 0 0 0 0 0 0 0 0 0 0 0 0
0 1 2 3 3 3 3 3 3 3 3 3 2 1 0 0 0 0 0 0 0 0 0 0 0 0 0 0 0 0 0 0 0 0 0 0 0 0 0 0 0 0 0
Wind_Speed
2 2 1 4 5 6 7 8 8 8 8 9 9 9 9 9 9 9 9 9 9 9 9 10 10 10 10 10 10 9 9 9 9 9 8 7 7 7 8 8 7 4 7
1 1 1 4 5 6 7 7 7 8 8 8 9 9 9 9 9 9 9 9 9 9 10 10 10 10 10 10 9 9 9 9 9 9 8 7 7 7 7 7 6 4 7
2 0 2 5 6 7 7 7 8 8 8 9 9 9 9 9 9 8 9 9 9 9 10 10 10 10 9 9 9 9 9 9 10 9 8 4 4 6 7 7 7 7 7
2 1 2 6 7 7 8 8 9 9 9 9 8 9 9 8 8 8 8 9 9 9 9 9 9 9 9 9 9 9 9 9 9 8 5 4 3 6 7 6 7 7 7
3 2 3 7 7 8 8 9 9 9 9 9 8 8 8 8 8 9 8 8 8 8 8 9 9 8 8 8 8 9 9 9 9 7 4 4 3 6 7 7 6 7 7
3 2 3 7 7 8 8 8 8 9 8 8 8 8 8 8 8 8 8 8 8 8 8 8 8 8 8 8 8 8 9 9 7 4 4 3 2 6 7 7 7 7 7
3 2 3 6 7 8 8 8 8 8 9 8 8 8 7 8 8 8 7 8 7 7 7 8 8 8 8 8 8 8 8 9 5 4 3 3 3 6 7 7 7 7 6
4 3 3 5 7 7 8 8 8 8 9 9 8 8 8 8 8 8 8 8 8 7 7 8 8 8 8 8 8 8 8 7 5 4 3 2 4 6 6 6 6 6 6
4 4 3 3 4 6 7 7 7 7 8 8 8 8 8 8 8 8 8 8 8 8 8 8 8 9 8 9 9 9 9 9 5 3 3 2 4 6 7 6 6 5 5
4 4 3 3 4 4 3 5 6 6 7 7 7 7 8 8 8 8 8 8 8 8 8 9 9 9 9 9 9 9 9 8 4 3 2 2 5 6 6 6 6 5 5
3 2 3 3 3 3 3 4 5 5 6 6 6 7 6 4 4 5 7 8 8 8 8 9 9 9 9 9 9 9 7 3 3 2 2 4 5 6 6 6 6 5 5
2 1 1 2 2 2 2 3 3 3 4 4 3 4 3 3 4 5 7 8 9 9 8 9 9 9 7 4 6 7 3 4 3 2 2 5 6 6 6 5 6 6 5
3 2 2 2 2 2 2 2 2 2 2 3 3 3 3 3 3 4 3 4 5 6 5 6 6 4 4 3 3 3 3 3 2 2 3 6 6 5 5 5 5 6 6
3 2 2 2 2 2 2 2 2 2 2 2 2 3 3 2 3 2 2 3 3 2 3 3 3 4 4 4 4 4 4 3 2 2 3 7 6 6 5 5 5 5 5
3 3 2 3 3 2 2 1 2 1 1 1 2 2 2 2 2 2 2 2 2 2 3 3 3 4 4 4 4 4 4 4 4 3 3 7 7 7 6 5 5 5 5
3 3 2 3 3 3 2 1 1 1 1 1 1 1 2 2 2 2 2 2 2 2 2 3 3 3 3 3 4 4 4 3 4 4 3 5 8 8 7 6 5 5 5
3 3 3 3 3 3 2 2 1 1 2 1 1 2 2 2 2 2 2 2 2 2 3 3 3 3 3 4 4 4 3 4 4 4 4 3 4 7 8 7 6 5 4
3 3 3 3 3 3 2 2 1 1 2 1 1 1 2 2 2 3 2 2 2 2 2 3 3 3 3 3 3 3 3 3 4 4 4 4 3 3 5 7 7 6 4
3 4 3 2 3 3 2 2 2 2 1 1 1 1 2 2 2 3 2 2 2 2 2 3 3 2 3 3 3 3 3 3 3 4 4 4 4 3 3 5 7 6 4
3 3 3 3 3 3 2 2 2 2 1 1 1 1 2 2 2 2 2 2 3 3 2 3 3 3 2 2 3 4 3 3 3 3 3 3 4 4 4 4 4 5 6
3 3 4 3 3 3 2 2 2 1 0 1 1 1 2 2 2 2 2 2 2 3 2 3 3 3 2 2 3 3 3 3 3 3 3 3 4 4 4 4 3 3 3
4 4 4 4 4 3 2 2 2 2 1 1 0 1 1 2 2 2 3 2 2 3 3 3 3 2 1 1 2 2 2 3 3 3 3 3 3 3 3 4 4 3 3
4 5 4 4 4 3 3 2 2 2 2 2 1 1 0 1 1 2 3 3 2 3 3 2 3 3 2 1 1 2 2 1 1 2 2 3 3 2 2 2 3 3 2
5 4 4 3 3 3 3 4 4 3 2 2 1 0 0 1 1 2 2 3 3 2 3 3 2 2 3 2 0 1 1 2 2 1 2 2 3 3 3 2 2 2 2
4 4 3 3 3 3 3 4 4 3 2 1 1 1 1 1 1 1 2 2 2 2 2 2 2 2 2 2 2 1 1 1 1 2 1 2 3 2 2 2 1 1 1
3 3 3 3 3 3 4 4 4 5 4 3 2 1 1 0 1 1 2 2 2 1 2 2 2 2 2 2 2 2 2 2 2 2 1 1 2 2 2 2 1 1 1
Wind_Direction
275 289 331 84 89 85 84 83 83 86 88 92 90 90 91 89 89 91 91 90 90 89 89 88 87 86 85 86 87 89 91 94 96 98 98 100 107 114 117 117 115 114 122
196 263 79 90 93 92 91 91 89 89 88 89 88 89 89 88 90 94 92 92 91 89 88 87 85 83 82 82 85 87 89 91 87 86 83 84 94 104 114 117 116 121 124
132 139 108 92 92 93 93 91 88 86 85 86 86 86 88 89 92 96 92 91 91 88 86 85 84 81 80 80 81 85 86 86 83 80 72 58 77 99 106 112 117 120 123
126 102 106 97 92 92 93 91 88 86 84 84 83 82 84 87 90 93 92 91 90 88 88 86 83 82 81 80 80 84 85 84 82 77 58 47 61 97 103 105 116 118 120
104 83 100 99 95 92 91 89 89 88 84 83 82 83 83 83 84 86 89 90 90 86 86 86 84 82 79 79 81 84 84 85 81 69 56 48 50 90 99 98 102 112 113
101 84 95 101 100 97 92 91 90 88 86 84 81 81 81 80 80 80 83 85 87 86 84 82 82 81 80 79 80 81 81 79 71 62 55 47 52 86 95 99 98 102 107
101 79 88 100 101 99 96 93 91 90 87 86 85 85 82 79 78 78 81 82 83 82 83 83 81 82 79 77 79 80 80 77 69 62 55 48 67 89 91 96 97 99 102
100 80 77 91 95 93 92 91 90 90 88 84 83 81 77 75 74 75 77 80 79 79 79 81 80 81 78 78 80 81 78 73 70 63 54 50 77 89 92 93 94 95 98
86 75 60 60 72 79 82 84 84 83 82 81 80 77 71 69 70 71 72 77 79 78 77 77 78 79 77 77 77 78 76 70 61 52 58 57 80 87 90 92 94 92 96
75 70 61 55 56 54 56 74 76 77 74 71 70 68 62 59 59 62 64 72 77 77 76 73 71 71 71 73 74 74 70 64 54 48 34 62 79 83 87 90 91 91 88
88 66 72 64 58 57 57 60 58 60 58 56 53 59 57 41 39 47 57 71 74 76 76 74 70 68 64 66 71 69 63 50 46 42 35 66 74 80 83 87 88 88 88
153 137 95 89 71 59 61 57 43 43 45 47 46 47 46 42 39 46 46 64 69 68 71 70 67 63 59 51 58 62 54 47 43 33 42 60 70 73 75 81 84 84 83
170 155 134 120 88 74 63 68 52 42 44 43 48 52 53 48 40 40 37 42 49 54 52 53 54 51 54 54 52 54 53 50 37 25 30 51 60 67 71 76 83 84 83
145 160 144 134 113 96 82 77 78 65 55 49 47 59 65 58 47 42 44 38 42 46 53 52 55 54 56 55 57 59 52 45 34 25 27 44 52 59 65 71 76 82 83
164 178 163 142 136 125 107 102 97 91 86 79 66 60 76 81 70 58 52 50 45 53 63 65 63 59 56 51 52 58 52 41 33 29 20 36 42 45 50 57 67 75 83
181 187 168 154 152 142 139 134 124 117 109 97 92 86 88 92 88 80 70 62 53 63 72 77 78 74 63 59 53 50 49 42 36 33 24 24 35 40 43 44 53 67 84
181 175 168 164 146 140 145 143 118 103 100 90 87 92 94 101 100 97 83 73 67 73 79 76 70 69 70 64 52 43 45 43 38 33 30 26 20 31 39 43 44 53 71
164 158 167 168 147 149 147 128 101 93 98 95 95 93 97 105 113 101 89 78 78 81 85 84 76 75 65 63 54 37 36 38 37 36 36 31 24 18 23 34 38 43 59
168 155 155 151 148 154 145 120 106 104 101 96 95 96 99 102 108 112 105 93 89 84 77 88 72 89 88 73 65 49 36 33 27 39 40 32 29 22 13 19 26 33 46
158 144 143 139 138 133 117 98 86 75 65 72 88 100 106 103 104 110 107 102 99 92 77 85 84 68 82 84 74 56 37 32 33 31 28 29 29 27 24 24 19 21 32
150 145 153 150 146 134 127 133 130 138 115 67 72 96 107 106 106 112 112 110 107 108 113 113 101 84 67 71 76 48 25 31 39 26 22 28 25 20 27 29 25 21 13
173 169 169 169 160 165 167 156 146 139 139 130 66 71 96 110 115 120 124 129 126 117 107 109 113 106 80 64 95 87 29 1 5 16 17 28 18 14 25 31 28 27 18
183 185 183 184 173 169 151 113 90 71 58 52 38 38 24 112 117 121 133 133 135 134 141 148 140 134 139 66 82 128 135 208 313 342 10 19 13 16 8 17 28 19 22
195 186 179 166 161 157 145 146 151 154 158 187 184 174 86 97 111 118 130 132 136 138 149 164 145 147 143 150 88 65 127 155 150 330 338 354 5 15 358 3 8 5 10
185 175 174 157 152 155 160 162 161 158 157 128 111 103 81 51 76 103 122 126 137 146 156 158 148 151 155 160 159 146 102 75 107 140 277 325 345 341 336 336 338 347 355
170 161 159 163 169 169 171 172 173 171 158 143 149 150 135 69 49 73 108 121 141 149 165 172 161 163 167 155 155 157 159 160 176 158 181 262 302 313 319 326 332 325 330